• In Österreich
  • Länderverzeichnis
  • Für 7 Tage
  • Wassertemperatur
  • Satellitenkarten
  • Wetterkarte
  • News
  • Widgets
  • user-avatar
    Anmelden

    Stündliche Wetter Eisenstadt

    Heute, 14 Dezember, Donnerstag

    Zeit Temperatur Niederschläge Wind Luftdruck Luftfeuchtigkeit
    00:00 -3°C° 0 mm 4 m/S 715 mmHg 86%
    01:00 -4°C° 0 mm 3 m/S 714 mmHg 87%
    02:00 -2°C° 0 mm 3 m/S 713 mmHg 85%
    03:00 -3°C° 0 mm 4 m/S 713 mmHg 83%
    04:00 -2°C° 0 mm 4 m/S 712 mmHg 81%
    05:00 -2°C° 0 mm 4 m/S 712 mmHg 80%
    06:00 -2°C° 0 mm 4 m/S 711 mmHg 79%
    07:00 -1°C° 0 mm 3 m/S 711 mmHg 81%
    08:00 0°C° 0 mm 3 m/S 712 mmHg 78%
    09:00 +1°C° 0 mm 3 m/S 712 mmHg 75%
    10:00 +2°C° 0 mm 3 m/S 712 mmHg 72%
    11:00 +3°C° 0,1 mm 3 m/S 712 mmHg 71%
    12:00 +4°C° 0,1 mm 3 m/S 713 mmHg 70%
    13:00 +6°C° 0,1 mm 2 m/S 713 mmHg 69%
    14:00 +5°C° 0 mm 2 m/S 713 mmHg 71%
    15:00 +5°C° 0 mm 2 m/S 713 mmHg 74%
    16:00 +4°C° 0 mm 2 m/S 713 mmHg 77%
    17:00 +4°C° 0,2 mm 2 m/S 713 mmHg 79%
    18:00 +4°C° 0,2 mm 2 m/S 713 mmHg 81%
    19:00 +3°C° 0,2 mm 2 m/S 713 mmHg 84%
    20:00 +3°C° 0,2 mm 2 m/S 712 mmHg 85%
    21:00 +3°C° 0,2 mm 2 m/S 712 mmHg 86%
    22:00 +2°C° 0,2 mm 3 m/S 712 mmHg 87%
    23:00 +2°C° 0,2 mm 3 m/S 711 mmHg 88%

    Morgen, 15 Dezember, Freitag

    Zeit Temperatur Niederschläge Wind Luftdruck Luftfeuchtigkeit
    00:00 +2°C° 0,2 mm 3 m/S 710 mmHg 89%
    01:00 +2°C° 0,2 mm 3 m/S 709 mmHg 89%
    02:00 +2°C° 0 mm 3 m/S 709 mmHg 90%
    03:00 +1°C° 0 mm 4 m/S 708 mmHg 91%
    04:00 +1°C° 0 mm 4 m/S 707 mmHg 92%
    05:00 +1°C° 0 mm 4 m/S 707 mmHg 90%
    06:00 +1°C° 0 mm 4 m/S 707 mmHg 88%
    07:00 +1°C° 0 mm 5 m/S 707 mmHg 86%
    08:00 +3°C° 0 mm 4 m/S 708 mmHg 81%
    09:00 +4°C° 0 mm 4 m/S 708 mmHg 77%
    10:00 +4°C° 0 mm 3 m/S 709 mmHg 73%
    11:00 +4°C° 0 mm 3 m/S 710 mmHg 72%
    12:00 +4°C° 0 mm 3 m/S 710 mmHg 71%
    13:00 +4°C° 0 mm 2 m/S 711 mmHg 70%
    14:00 +4°C° 0,1 mm 2 m/S 711 mmHg 71%
    15:00 +4°C° 0,1 mm 2 m/S 711 mmHg 72%
    16:00 +3°C° 0,1 mm 2 m/S 711 mmHg 73%
    17:00 +3°C° 0,2 mm 2 m/S 712 mmHg 75%
    18:00 +4°C° 0,2 mm 1 m/S 712 mmHg 76%
    19:00 +3°C° 0,2 mm 1 m/S 713 mmHg 77%
    20:00 +3°C° 0 mm 1 m/S 712 mmHg 78%
    21:00 +3°C° 0 mm 1 m/S 712 mmHg 79%
    22:00 +3°C° 0 mm 1 m/S 712 mmHg 80%
    23:00 +2°C° 0 mm 1 m/S 712 mmHg 80%

    übermorgen, 16 Dezember, Samstag

    Zeit Temperatur Niederschläge Wind Luftdruck Luftfeuchtigkeit
    00:00 +2°C° 0 mm 1 m/S 712 mmHg 80%
    01:00 +2°C° 0 mm 1 m/S 712 mmHg 80%
    02:00 +2°C° 0 mm 1 m/S 712 mmHg 81%
    03:00 +2°C° 0 mm 1 m/S 712 mmHg 81%
    04:00 +2°C° 0 mm 1 m/S 712 mmHg 81%
    05:00 +2°C° 0 mm 1 m/S 712 mmHg 81%
    06:00 +1°C° 0 mm 2 m/S 712 mmHg 81%
    07:00 -1°C° 0 mm 2 m/S 713 mmHg 81%
    08:00 +1°C° 0 mm 2 m/S 713 mmHg 79%
    09:00 +2°C° 0 mm 2 m/S 714 mmHg 77%
    10:00 +2°C° 0 mm 2 m/S 714 mmHg 75%
    11:00 +3°C° 0 mm 2 m/S 715 mmHg 73%
    12:00 +3°C° 0 mm 2 m/S 715 mmHg 71%
    13:00 +4°C° 0 mm 2 m/S 715 mmHg 69%
    14:00 +3°C° 0 mm 2 m/S 716 mmHg 72%
    15:00 +2°C° 0 mm 2 m/S 716 mmHg 75%
    16:00 +2°C° 0 mm 2 m/S 716 mmHg 78%
    17:00 +1°C° 0 mm 2 m/S 717 mmHg 79%
    18:00 -1°C° 0 mm 2 m/S 717 mmHg 80%
    19:00 -1°C° 0 mm 2 m/S 718 mmHg 81%
    20:00 -1°C° 0 mm 2 m/S 719 mmHg 81%
    21:00 -1°C° 0 mm 2 m/S 719 mmHg 82%
    22:00 -2°C° 0 mm 2 m/S 719 mmHg 83%
    23:00 -2°C° 0 mm 2 m/S 720 mmHg 83%

    17 Dezember, Sonntag

    Zeit Temperatur Niederschläge Wind Luftdruck Luftfeuchtigkeit
    00:00 -2°C° 0 mm 2 m/S 720 mmHg 83%
    01:00 -2°C° 0 mm 2 m/S 720 mmHg 84%
    02:00 -2°C° 0 mm 2 m/S 720 mmHg 83%
    03:00 -2°C° 0 mm 3 m/S 721 mmHg 83%
    04:00 -2°C° 0 mm 3 m/S 721 mmHg 82%
    05:00 -2°C° 0 mm 3 m/S 721 mmHg 82%
    06:00 -2°C° 0 mm 3 m/S 722 mmHg 81%
    07:00 -4°C° 0 mm 3 m/S 722 mmHg 80%
    08:00 -2°C° 0 mm 3 m/S 723 mmHg 76%
    09:00 -2°C° 0 mm 4 m/S 723 mmHg 71%
    10:00 -1°C° 0 mm 5 m/S 724 mmHg 67%
    11:00 -1°C° 0 mm 5 m/S 724 mmHg 64%
    12:00 0°C° 0 mm 5 m/S 724 mmHg 62%
    13:00 0°C° 0 mm 5 m/S 724 mmHg 59%
    14:00 0°C° 0 mm 5 m/S 724 mmHg 63%
    15:00 -1°C° 0 mm 4 m/S 725 mmHg 68%
    16:00 -1°C° 0 mm 3 m/S 725 mmHg 72%
    17:00 -2°C° 0 mm 3 m/S 725 mmHg 73%
    18:00 -2°C° 0 mm 3 m/S 726 mmHg 75%
    19:00 -2°C° 0 mm 3 m/S 726 mmHg 76%
    20:00 -2°C° 0 mm 3 m/S 727 mmHg 76%
    21:00 -2°C° 0 mm 3 m/S 727 mmHg 76%
    22:00 -4°C° 0 mm 3 m/S 727 mmHg 77%
    23:00 -2°C° 0 mm 3 m/S 727 mmHg 76%

    18 Dezember, Montag

    Zeit Temperatur Niederschläge Wind Luftdruck Luftfeuchtigkeit
    00:00 -2°C° 0 mm 3 m/S 728 mmHg 76%
    01:00 -2°C° 0 mm 3 m/S 728 mmHg 76%
    02:00 -2°C° 0 mm 3 m/S 728 mmHg 77%
    03:00 -2°C° 0 mm 3 m/S 727 mmHg 78%
    04:00 -2°C° 0 mm 3 m/S 727 mmHg 79%
    05:00 -2°C° 0,1 mm 3 m/S 727 mmHg 78%
    06:00 -2°C° 0,1 mm 3 m/S 727 mmHg 78%
    07:00 -2°C° 0,1 mm 3 m/S 727 mmHg 77%
    08:00 -2°C° 0,1 mm 3 m/S 727 mmHg 74%
    09:00 -1°C° 0,1 mm 3 m/S 726 mmHg 71%
    10:00 -1°C° 0,1 mm 3 m/S 726 mmHg 68%
    11:00 -1°C° 0,5 mm 3 m/S 725 mmHg 70%
    12:00 -1°C° 0,5 mm 3 m/S 724 mmHg 72%
    13:00 -1°C° 0,5 mm 3 m/S 723 mmHg 74%
    14:00 -1°C° 0,5 mm 3 m/S 722 mmHg 76%
    15:00 -1°C° 0,5 mm 3 m/S 722 mmHg 78%
    16:00 -1°C° 0,5 mm 3 m/S 721 mmHg 80%
    17:00 -1°C° 0,1 mm 3 m/S 721 mmHg 81%
    18:00 -1°C° 0,1 mm 3 m/S 722 mmHg 82%
    19:00 -1°C° 0,1 mm 3 m/S 722 mmHg 83%
    20:00 -1°C° 0 mm 3 m/S 722 mmHg 84%
    21:00 -1°C° 0 mm 3 m/S 723 mmHg 85%
    22:00 -1°C° 0 mm 3 m/S 723 mmHg 86%
    23:00 -1°C° 0,1 mm 3 m/S 723 mmHg 86%

    19 Dezember, Dienstag

    Zeit Temperatur Niederschläge Wind Luftdruck Luftfeuchtigkeit
    00:00 0°C° 0,1 mm 3 m/S 724 mmHg 86%
    01:00 0°C° 0,1 mm 3 m/S 724 mmHg 86%
    02:00 0°C° 0,3 mm 3 m/S 725 mmHg 87%
    03:00 0°C° 0,3 mm 3 m/S 725 mmHg 88%
    04:00 0°C° 0,3 mm 3 m/S 726 mmHg 89%
    05:00 -2°C° 0,3 mm 4 m/S 727 mmHg 88%
    06:00 -2°C° 0,3 mm 4 m/S 728 mmHg 88%
    07:00 -2°C° 0,3 mm 4 m/S 728 mmHg 87%
    08:00 -2°C° 0,1 mm 4 m/S 729 mmHg 85%
    09:00 -2°C° 0,1 mm 4 m/S 730 mmHg 82%
    10:00 -2°C° 0,1 mm 4 m/S 730 mmHg 79%
    11:00 -2°C° 0 mm 4 m/S 730 mmHg 78%
    12:00 -2°C° 0 mm 4 m/S 731 mmHg 77%
    13:00 -1°C° 0 mm 4 m/S 731 mmHg 76%
    14:00 -1°C° 0 mm 3 m/S 731 mmHg 79%
    15:00 -2°C° 0 mm 3 m/S 731 mmHg 82%
    16:00 -3°C° 0 mm 2 m/S 731 mmHg 85%
    17:00 -3°C° 0 mm 2 m/S 731 mmHg 86%
    18:00 -3°C° 0 mm 2 m/S 731 mmHg 87%
    19:00 -3°C° 0 mm 2 m/S 731 mmHg 88%
    20:00 -3°C° 0,1 mm 2 m/S 731 mmHg 88%
    21:00 -3°C° 0,1 mm 2 m/S 732 mmHg 88%
    22:00 -4°C° 0,1 mm 3 m/S 732 mmHg 88%
    23:00 -5°C° 0 mm 3 m/S 732 mmHg 88%
    Mehr zeigen